[[{"header":{"parameterUnit":"m.s-1","parameterCategory":1,"la1":30.2992,"la2":30.254,"lo1":-89.0895,"lo2":-89.0443,"dy":0.0025,"dx":0.0025,"nx":19,"ny":19,"refTime":"2026-03-20T03:00:00:Z","depth":0,"parameterNumber":2,"parameterNumberName":"U-component_of_WINDS"},"data":[0,0,0,0.3611,0.3613,0.3719,0.3719,0.3839,0.384,0,0,0,0,0,0,0,0,0,0,0,0.3571,0.3571,0.3611,0.3614,0.3719,0.3719,0.3839,0.384,0,0,0,0,0,0,0,0,0,0,0,0.3571,0.3571,0.3572,0.3614,0.3719,0.3719,0.3839,0.3765,0,0,0,0,0,0,0,0,0,0,0.3665,0.3619,0.3571,0.3572,0.3614,0.3718,0.3719,0.3762,0.377,0.3785,0,0.3796,0,0.382,0.3847,0.3848,0,0,0,0.3621,0.3612,0.3649,0.3572,0.3615,0.3718,0.3673,0.3766,0.3775,0.3796,0.3798,0.3803,0.3822,0.3848,0.3849,0.3911,0.3911,0,0,0.3615,0.3585,0.3642,0.3654,0.3636,0.367,0.3676,0.3772,0.3773,0.3798,0.3806,0.3824,0.3849,0.385,0.3911,0.3911,0,0,0,0.3593,0.3581,0.3615,0.3648,0.3668,0.3673,0.368,0.3769,0.3782,0.3807,0.3825,0.3849,0.3851,0.3911,0.3911,0.3878,0,0,0,0.359,0.3568,0.3612,0.3595,0.3666,0.372,0.3675,0.3776,0.3787,0.3825,0.3849,0.3852,0.3911,0.3911,0.3879,0.3868,0,0,0,0.3567,0.3566,0.3578,0.3593,0.3637,0.3719,0.3738,0.3779,0.3798,0.3848,0.3852,0.3911,0.3911,0.388,0.387,0.3874,0,0,0,0.3534,0.3549,0.3576,0.3599,0.3636,0.3697,0.3738,0.3786,0.3824,0.385,0.3911,0.3911,0.3881,0.3871,0.3875,0.3872,0.3869,0,0,0.3536,0.3548,0.3564,0.3591,0.3639,0.3684,0.3728,0.3793,0.3826,0.3881,0.3883,0.3879,0.387,0.3875,0.3858,0.3855,0,0,0,0.3554,0.3564,0.3584,0.3618,0.3667,0.3707,0.3768,0.3791,0.3839,0.3848,0.3883,0.3879,0.3883,0.3883,0.388,0.3885,0.391,0.391,0.391,0.3514,0.3553,0.3581,0.3632,0.3665,0.3726,0.3756,0.3799,0.3831,0.3838,0.3855,0.384,0.3839,0.3837,0.3841,0.3857,0.3857,0.3857,0.3857,0.3519,0.354,0.3579,0.362,0.3661,0.3697,0.3755,0.3776,0.3815,0.3831,0.3837,0.3851,0.3832,0.3838,0.3855,0.3855,0.3855,0.3856,0.3856,0.3497,0.3513,0.354,0.3592,0.3628,0.368,0.3714,0.3751,0.3786,0.3792,0.3812,0.3813,0.3817,0.3799,0.3799,0.3799,0.3799,0.3799,0.3799,0.3463,0.3494,0.3518,0.3568,0.3594,0.3632,0.3692,0.3718,0.3757,0.3781,0.3782,0.3812,0.3823,0.3824,0.3798,0.3798,0.3798,0.3798,0.3798,0.3453,0.346,0.3497,0.3522,0.3583,0.3615,0.3661,0.3711,0.3738,0.3753,0.3782,0.3784,0.38,0.3802,0.3804,0.3774,0.3774,0.3774,0.3774,0.3434,0.3444,0.3489,0.3526,0.3568,0.3612,0.3651,0.3696,0.3745,0.3764,0.3773,0.3779,0.3779,0.3795,0.3797,0.3799,0.3769,0.3769,0.3769,0.3429,0.3445,0.3471,0.3517,0.3567,0.3608,0.3646,0.3687,0.3744,0.3769,0.3779,0.3779,0.3788,0.3789,0.3815,0.3819,0.3823,0,0]},{"header":{"parameterUnit":"m.s-1","parameterCategory":1,"la1":30.2992,"la2":30.254,"lo1":-89.0895,"lo2":-89.0443,"dy":0.0025,"dx":0.0025,"nx":19,"ny":19,"refTime":"2026-03-20T03:00:00:Z","depth":0,"parameterNumber":3,"parameterNumberName":"V-component_of_WINDS"},"data":[0,0,0,3.1452,3.1451,3.1396,3.1396,3.1314,3.1313,0,0,0,0,0,0,0,0,0,0,0,3.1464,3.1464,3.1452,3.1451,3.1396,3.1396,3.1314,3.1313,0,0,0,0,0,0,0,0,0,0,0,3.1465,3.1464,3.1463,3.145,3.1396,3.1396,3.1314,3.1359,0,0,0,0,0,0,0,0,0,0,3.1414,3.1422,3.1464,3.1463,3.145,3.1396,3.1396,3.1361,3.1356,3.1334,0,3.1318,0,3.1314,3.1307,3.1307,0,0,0,3.1452,3.1427,3.1416,3.1463,3.145,3.1396,3.1421,3.1358,3.1353,3.1328,3.1316,3.1314,3.1313,3.1306,3.1306,3.1182,3.1182,0,0,3.1455,3.1452,3.142,3.1412,3.1424,3.1423,3.1419,3.1355,3.1341,3.1316,3.1312,3.1311,3.1306,3.1305,3.1183,3.1182,0,0,0,3.1463,3.1454,3.1445,3.1415,3.1406,3.1421,3.1417,3.1344,3.1342,3.1311,3.131,3.1305,3.1304,3.1184,3.1183,3.1146,0,0,0,3.1465,3.1458,3.1446,3.1443,3.1407,3.1375,3.1408,3.1346,3.1339,3.1311,3.1305,3.1303,3.1184,3.1183,3.1148,3.1128,0,0,0,3.1469,3.1459,3.145,3.1443,3.142,3.1376,3.137,3.1345,3.1338,3.1307,3.1303,3.1185,3.1183,3.1151,3.1131,3.1092,0,0,0,3.1472,3.1418,3.1449,3.1388,3.142,3.1356,3.1371,3.1322,3.1291,3.1305,3.1184,3.1183,3.1151,3.1134,3.1095,3.1057,3.1042,0,0,3.1401,3.1409,3.1373,3.14,3.1329,3.1364,3.1287,3.126,3.1259,3.1207,3.1204,3.1147,3.1132,3.1093,3.0962,3.095,0,0,0,3.1349,3.1323,3.1305,3.1276,3.1257,3.1236,3.1223,3.1213,3.1169,3.1233,3.1124,3.1115,3.1092,3.1074,3.1063,3.1042,3.1175,3.1175,3.1175,3.1241,3.1245,3.1185,3.1182,3.1153,3.114,3.1116,3.1099,3.111,3.1084,3.1068,3.0989,3.0967,3.096,3.0938,3.1051,3.105,3.105,3.105,3.1135,3.1098,3.1115,3.1063,3.1066,3.102,3.1004,3.1013,3.0969,3.1002,3.0981,3.1014,3.0946,3.0927,3.1047,3.1048,3.1048,3.1048,3.1049,3.1063,3.1046,3.1036,3.0994,3.096,3.0958,3.0915,3.0919,3.0922,3.0903,3.0884,3.0885,3.0883,3.0894,3.0894,3.0894,3.0893,3.0893,3.0893,3.0991,3.0981,3.0946,3.0921,3.0902,3.0877,3.0862,3.0842,3.0821,3.0827,3.0827,3.0838,3.0941,3.0965,3.0889,3.089,3.089,3.089,3.0891,3.0877,3.0904,3.0849,3.0831,3.0799,3.0764,3.0771,3.073,3.0714,3.0691,3.0708,3.0784,3.0791,3.0799,3.0819,3.071,3.071,3.071,3.071,3.0814,3.082,3.0764,3.0733,3.0703,3.0704,3.0637,3.0624,3.0614,3.0604,3.0621,3.0648,3.0657,3.0659,3.067,3.0688,3.0548,3.0547,3.0547,3.0743,3.0746,3.069,3.0684,3.0659,3.0637,3.0574,3.0534,3.0529,3.0541,3.0595,3.0602,3.0646,3.0661,3.0672,3.0689,3.0723,0,0]}]]